Le nostre stazioni meteo in Italia

Pubblicità
Il mio iltempo24.it
Palermo/Punta Raisi, Italia (16405): Temperatura & dewpoint: 23.06.2017 00:00:00 - 29.06.2017 00:00:00 (CEST)Palermo/Punta Raisi, Italia (16405): velocità del vento: 23.06.2017 00:00:00 - 29.06.2017 00:00:00 (CEST)Palermo/Punta Raisi, Italia (16405): direzione del vento: 23.06.2017 00:00:00 - 29.06.2017 00:00:00 (CEST)Palermo/Punta Raisi, Italia (16405): visibility: 23.06.2017 00:00:00 - 29.06.2017 00:00:00 (CEST)
Data & Tempo tt [°C] td [°C] ff [km/h] ff [kn] dd vv [km]
29.06.2017 00:00:00 29,0 13,0 15 8 SSO 10
28.06.2017 23:00:00 30,0 14,0 16 9 SSO 10
28.06.2017 22:00:00 31,0 14,0 24 13 SSO 10
28.06.2017 21:00:00 30,0 17,0 26 14 OSO 10
28.06.2017 20:00:00 30,0 19,0 31 17 OSO 10
28.06.2017 19:00:00 29,0 20,0 11 6 ONO 10
28.06.2017 18:00:00 28,0 22,0 2 1 NO 10
28.06.2017 17:00:00 31,0 20,0 16 9 NE 10
28.06.2017 16:00:00 29,0 21,0 15 8 N 10
28.06.2017 15:00:00 29,0 22,0 13 7 NNE 10
28.06.2017 14:00:00 31,0 20,0 15 8 ENE 10
28.06.2017 13:00:00 34,0 15,0 9 5 NNE 10
28.06.2017 12:00:00 31,0 18,0 9 5 O 10
28.06.2017 11:00:00 29,0 19,0 - - - 0,3
28.06.2017 10:00:00 28,0 20,0 4 2 - 10
28.06.2017 09:00:00 27,0 21,0 2 1 - 10
28.06.2017 08:00:00 27,0 20,0 15 8 ENE 10
28.06.2017 07:00:00 25,0 19,0 8 4 NE 10
28.06.2017 06:00:00 26,0 17,0 4 2 - 10
28.06.2017 05:00:00 25,0 20,0 21 11 SO 10
28.06.2017 04:00:00 26,0 18,0 5 3 - 10
28.06.2017 03:00:00 27,0 15,0 4 2 - 10
28.06.2017 02:00:00 25,0 18,0 5 3 S 10
28.06.2017 01:00:00 25,0 19,0 4 2 - 10
28.06.2017 00:00:00 26,0 22,0 2 1 - 10
27.06.2017 23:00:00 27,0 21,0 11 6 NE 10
27.06.2017 22:00:00 27,0 21,0 11 6 NE 10
27.06.2017 21:00:00 27,0 22,0 9 5 NE 10
27.06.2017 20:00:00 27,0 22,0 9 5 OSO 10
27.06.2017 19:00:00 27,0 22,0 18 10 ONO 10
27.06.2017 18:00:00 28,0 21,0 16 9 O 10
27.06.2017 17:00:00 29,0 19,0 22 12 O 10
27.06.2017 16:00:00 33,0 17,0 28 15 OSO 10
27.06.2017 15:00:00 38,0 11,0 34 18 SSO 10
27.06.2017 14:00:00 38,0 11,0 35 19 SSO 10
27.06.2017 13:00:00 38,0 11,0 39 21 SSO 10
27.06.2017 12:00:00 37,0 11,0 37 20 SSO 10
27.06.2017 11:00:00 36,0 11,0 39 21 SSO 10
27.06.2017 10:00:00 34,0 10,0 41 22 SSO 10
27.06.2017 09:00:00 32,0 13,0 16 9 O 10
27.06.2017 08:00:00 29,0 17,0 15 8 E 10
27.06.2017 07:00:00 31,0 11,0 18 10 S 10
27.06.2017 06:00:00 29,0 12,0 16 9 S 10
27.06.2017 05:00:00 26,0 18,0 18 10 OSO 10
27.06.2017 04:00:00 26,0 14,0 13 7 SO 10
27.06.2017 03:00:00 25,0 13,0 4 2 SSO 10
27.06.2017 02:00:00 27,0 13,0 2 1 SSO 10
27.06.2017 01:00:00 27,0 13,0 5 3 SSO 10
27.06.2017 00:00:00 25,0 17,0 5 3 SSO 10
26.06.2017 23:00:00 26,0 18,0 8 4 SSO 10
26.06.2017 22:00:00 29,0 13,0 5 3 ESE 10
26.06.2017 21:00:00 29,0 12,0 9 5 E 10
26.06.2017 20:00:00 30,0 15,0 8 4 NE 10
26.06.2017 19:00:00 31,0 13,0 8 4 NNE 10
26.06.2017 18:00:00 30,0 16,0 11 6 NE 10
26.06.2017 17:00:00 32,0 12,0 9 5 NE 10
26.06.2017 16:00:00 30,0 15,0 11 6 NNE 10
26.06.2017 15:00:00 31,0 17,0 11 6 NE 10
26.06.2017 14:00:00 - - - - - -
26.06.2017 13:00:00 29,0 21,0 11 6 NNE 10
26.06.2017 12:00:00 - - - - - -
26.06.2017 11:00:00 27,0 20,0 8 4 N 10
26.06.2017 10:00:00 - - - - - -
26.06.2017 09:00:00 26,0 21,0 9 5 NNE 10
26.06.2017 08:00:00 25,0 18,0 2 1 - 10
26.06.2017 07:00:00 22,0 15,0 8 4 SSO 10
26.06.2017 06:00:00 23,0 15,0 9 5 E 10
26.06.2017 05:00:00 23,0 16,0 2 1 - 10
26.06.2017 04:00:00 22,0 16,0 5 3 SSO 10
26.06.2017 03:00:00 23,0 19,0 5 3 SSO 10
26.06.2017 02:00:00 23,0 19,0 2 1 - 10
26.06.2017 01:00:00 23,0 19,0 8 4 SO 10
26.06.2017 00:00:00 24,0 21,0 13 7 OSO 10
25.06.2017 23:00:00 - - - - - -
25.06.2017 22:00:00 24,0 20,0 11 6 NE 10
25.06.2017 21:00:00 25,0 20,0 11 6 NE 10
25.06.2017 20:00:00 26,0 21,0 18 10 NE 10
25.06.2017 19:00:00 26,0 20,0 21 11 NE 10
25.06.2017 18:00:00 27,0 20,0 21 11 NE 10
25.06.2017 17:00:00 28,0 20,0 24 13 NE 10
25.06.2017 16:00:00 27,0 20,0 26 14 NE 10
25.06.2017 15:00:00 27,0 21,0 22 12 NE 10
25.06.2017 14:00:00 27,0 21,0 21 11 NNE 10
25.06.2017 13:00:00 26,0 21,0 21 11 NNE 10
25.06.2017 12:00:00 26,0 21,0 13 7 NNE 10
25.06.2017 11:00:00 25,0 20,0 9 5 NO 10
25.06.2017 10:00:00 24,0 19,0 11 6 O 10
25.06.2017 09:00:00 23,0 19,0 8 4 O 10
25.06.2017 08:00:00 23,0 18,0 4 2 O 10
25.06.2017 07:00:00 23,0 19,0 5 3 O 10
25.06.2017 06:00:00 21,0 17,0 2 1 - 10
25.06.2017 05:00:00 21,0 16,0 8 4 SSO 10
25.06.2017 04:00:00 21,0 15,0 4 2 S 10
25.06.2017 03:00:00 22,0 18,0 4 2 SE 10
25.06.2017 02:00:00 23,0 20,0 9 5 O 10
25.06.2017 01:00:00 23,0 18,0 4 2 - 10
25.06.2017 00:00:00 24,0 19,0 2 1 - 10
24.06.2017 23:00:00 24,0 18,0 13 7 ENE 10
24.06.2017 22:00:00 25,0 19,0 15 8 ENE 10
24.06.2017 21:00:00 25,0 20,0 18 10 NE 10
24.06.2017 20:00:00 25,0 20,0 24 13 NE 10
24.06.2017 19:00:00 27,0 19,0 28 15 NE 10
24.06.2017 18:00:00 27,0 19,0 26 14 NE 10
24.06.2017 17:00:00 27,0 19,0 28 15 NE 10
24.06.2017 16:00:00 27,0 20,0 28 15 NE 10
24.06.2017 15:00:00 27,0 21,0 24 13 NNE 10
24.06.2017 14:00:00 27,0 18,0 24 13 NNE 10
24.06.2017 13:00:00 27,0 20,0 22 12 NNE 10
24.06.2017 12:00:00 26,0 21,0 21 11 NE 10
24.06.2017 11:00:00 25,0 20,0 16 9 NNE 10
24.06.2017 10:00:00 24,0 20,0 5 3 O 10
24.06.2017 09:00:00 24,0 20,0 5 3 ONO 10
24.06.2017 08:00:00 23,0 19,0 4 2 ONO 10
24.06.2017 07:00:00 23,0 18,0 4 2 NE 10
24.06.2017 06:00:00 21,0 17,0 5 3 S 10
24.06.2017 05:00:00 22,0 18,0 4 2 - 10
24.06.2017 04:00:00 - - - - - -
24.06.2017 03:00:00 22,0 19,0 8 4 O 10
24.06.2017 02:00:00 23,0 18,0 8 4 S 10
24.06.2017 01:00:00 22,0 19,0 5 3 ESE 10
24.06.2017 00:00:00 24,0 19,0 9 5 O 10
23.06.2017 23:00:00 24,0 19,0 4 2 - 10
23.06.2017 22:00:00 25,0 19,0 18 10 ENE 10
23.06.2017 21:00:00 25,0 20,0 21 11 NE 10
23.06.2017 20:00:00 26,0 19,0 26 14 NE 10
23.06.2017 19:00:00 27,0 19,0 31 17 ENE 10
23.06.2017 18:00:00 27,0 20,0 26 14 NE 10
23.06.2017 17:00:00 28,0 20,0 29 16 ENE 10
23.06.2017 16:00:00 28,0 19,0 31 17 ENE 10
23.06.2017 15:00:00 28,0 20,0 34 18 ENE 10
23.06.2017 14:00:00 28,0 19,0 31 17 ENE 10
23.06.2017 13:00:00 27,0 20,0 28 15 NE 10
23.06.2017 12:00:00 28,0 19,0 22 12 ENE 10
23.06.2017 11:00:00 26,0 20,0 22 12 NE 10
23.06.2017 10:00:00 24,0 18,0 8 4 NO 10
23.06.2017 09:00:00 24,0 18,0 5 3 O 10
23.06.2017 08:00:00 24,0 17,0 5 3 OSO 10
23.06.2017 07:00:00 21,0 16,0 4 2 S 10
23.06.2017 06:00:00 20,0 13,0 4 2 - 10
23.06.2017 05:00:00 22,0 16,0 9 5 NE 10
23.06.2017 04:00:00 22,0 14,0 4 2 - 10
23.06.2017 03:00:00 21,0 13,0 4 2 SSO 10
23.06.2017 02:00:00 - - - - - -
23.06.2017 01:00:00 - - - - - -
23.06.2017 00:00:00 23,0 18,0 2 1 - 10

tt = Temperatura
td = dewpoint
ff = velocità del vento
dd = direzione del vento
vv = visibility

Stazioni seguenti

WeatherPro
AMSI
MeteoEarth